Miscellaneous Local Product
Issued by NWS North Platte, NE

Home | Current Version | Previous Version | Text Only | Print | Product List | Glossary On
Versions: 1 2 3 4 5 6 7 8 9 10 11 12 13 14 15 16 17 18 19 20 21 22 23 24 25 26 27 28 29 30 31 32 33 34 35 36 37 38 39 40 41 42 43 44 45 46 47 48 49 50
000
AXUS43 KLBF 291710
MISLBF


WESTERN AND NORTH CENTRAL NEBRASKA HOURLY WEATHER ROUNDUP
NATIONAL WEATHER SERVICE NORTH PLATTE NE
1200 PM CDT FRI AUG 29 2014

***STATIONS NOT REPORTING VARIABLES SUCH AS SKY/WEATHER OR
PRESSURE ARE PROVIDED BY THE NEBRASKA DEPARTMENT OF
ROADS...RAWS...AND APRS NETWORKS...AND ARE NOT UNDER
NATIONAL WEATHER SERVICE QUALITY CONTROL***

...OBSERVATIONS IN AND NEAR THE EASTERN PANHANDLE OF NEBRASKA...

CITY           SKY/WX    TMP DP  RH WIND       PRES   REMARKS
PINE RIDGE     SUNNY     75  54  47 N17G25    29.98S
CHADRON        MOSUNNY   74  55  51 N9        30.01R
ALLIANCE       SUNNY     76  53  44 N15       30.00S
SIDNEY         SUNNY     80  48  32 NW14      30.04S
WHITECLAY        N/A     76  54  46 SW13        N/A
RUSHVILLE        N/A     76  51  41 NE22        N/A
GORDON           N/A     77  53  42 N28         N/A
CRESCENT LAKE    N/A     78  57  47 N13         N/A
LISCO            N/A     80  56  42 W7          N/A
BIG SPRINGS      N/A     69  60  72 CALM        N/A
$$

...OBSERVATIONS IN NORTH CENTRAL NEBRASKA...

CITY           SKY/WX    TMP DP  RH WIND       PRES   REMARKS
VALENTINE      SUNNY     80  59  48 NW16G23   29.88F
THEDFORD       SUNNY     81  56  43 N16       29.92R
AINSWORTH      SUNNY     75  61  61 N8        29.89S
O`NEILL        CLOUDY    72  68  88 N6        29.86S
ORD            PTSUNNY   75  65  70 N7        29.85S
BROKEN BOW     SUNNY     78  60  53 N10       29.87F
SPRINGVIEW       N/A     77  65  65 N5          N/A
ROSE             N/A     79  70  73 E5          N/A
NEWPORT          N/A     75  67  74 NW9         N/A
SARGENT          N/A     77  65  65 CALM        N/A
COMSTOCK         N/A     82  70  66 CALM        N/A
CHAMBERS         N/A     78  67  68 N5          N/A
EWING            N/A     69  68  96 CALM        N/A
$$

...OBSERVATIONS IN SOUTHWEST NEBRASKA AND FAR NORTHEAST COLORADO...

CITY           SKY/WX    TMP DP  RH WIND       PRES   REMARKS
WRAY             N/A     82  53  36 NW8       29.99S
HOLYOKE        FAIR      81  54  39 N7        30.00R
IMPERIAL       SUNNY     77  56  48 NW9       29.96S
OGALLALA       SUNNY     78  55  44 N10       29.95S
NORTH PLATTE   SUNNY     77  59  53 NW6       29.90F
MCCOOK         SUNNY     78  56  46 W7        29.92S
LEXINGTON      SUNNY     75  62  64 W8        29.89S
PAXTON           N/A     70  61  72 CALM        N/A
SUTHERLAND       N/A     83  60  45 W5          N/A
BRADY            N/A     75  63  66 CALM        N/A
GOTHENBURG       N/A     73  56  54 NW3         N/A
CALLAWAY         N/A     73  61  67 NW7         N/A
$$

...SOME WEATHER OBSERVATIONS FROM AROUND THE REGION...

CITY           SKY/WX    TMP DP  RH WIND       PRES   REMARKS
DENVER         MOSUNNY   77  44  30 N8        30.12R
LARAMIE        SUNNY     64  45  49 NW13      30.25F
CHEYENNE       MOSUNNY   68  45  43 NW16G24   30.18R
SCOTTSBLUFF    MOSUNNY   74  58  57 NW21      30.03R
RAPID CITY     LGT RAIN  64  53  67 N16G28    30.00R
PIERRE         PTSUNNY   71  67  87 NW13      29.84S
WINNER         FAIR      77  65  66 N7        29.86R
SIOUX FALLS    CLOUDY    73  69  87 S5        29.81S
OMAHA          LGT RAIN  73  68  84 SW6       29.85S
GRAND ISLAND   PTSUNNY   70  65  84 NE5       29.87S
KANSAS CITY    CLOUDY    73  66  78 S7        29.89R
WICHITA        MOSUNNY   81  63  54 S9        29.89F
HAYS           MOSUNNY   75  61  60 W5        29.90F
LIBERAL        SUNNY     79  52  38 W9        30.00R
GOODLAND       SUNNY     79  52  38 NW13      29.99F
$$



USA.gov is the U.S. government's official web portal to all federal, state and local government web resources and services.